Zurück zum Katalog

CZ-4C R/B

AktivSSO
NORAD 49010·ROCKET BODY·🇨🇳 China

Gestartet Jul 4, 2021 von Jiuquan Satellite Launch Center

Loading…

Nächste Überflüge (nächste 24 Stunden)

TLE

AktuellSource: Space-Track

Epoche: Sep 14, 2026, 04:56 UTC

1 49010U 21062C   26257.20608315  .00000185  00000-0  47534-4 0  9993
2 49010  98.5259 348.3548 0131943  10.0517 350.3272 14.57286166276096

Verfolge CZ-4C R/B in Echtzeit mit AllMySat

Download on the App Store